Date String (YYYY-MM-DD hh:mm:ss) UTC,Instrument flags,Ambient pressure (hPa),Sample flow (lpm),Bypass flow (lpm),Sample temperature (°C),Ambient temperature (°C),ASC tube jacket temperature (°C),LED temperature (°C),Box temperature (°C),Sample RH (%),Span deviation,Mass concentration (μg/m³),Mass concentration (μg/m³),Mass concentration (μg/m³)
DateTimeUTC,F1_M11,P_M11,Q1_M11,Q2_M11,T1_M11,T2_M11,T3_M11,T4_M11,T5_M11,U1_M11,ZSPAN_M11,X2_M11,X0_M11,X1_M11
2022-12-17 01:00:00,,0822.5,4.96,0.00,20.6,18.7,00.0,29.7,22.0,03.9,0000.0,0001.79,0003.89,0001.48
2022-12-17 01:01:00,,0822.5,5.03,0.00,20.5,18.5,00.0,29.6,21.9,03.9,0000.0,0001.81,0004.04,0001.48
2022-12-17 01:02:00,,0822.5,4.97,0.00,20.5,19.3,00.0,29.6,22.0,03.9,0000.0,0001.84,0003.41,0001.48
2022-12-17 01:03:00,,0822.5,5.00,0.00,20.7,20.8,00.0,29.5,22.4,03.9,0000.0,0001.87,0003.66,0001.48
2022-12-17 01:04:00,,0822.4,5.03,0.00,20.8,21.2,00.0,29.6,22.7,03.9,0000.0,0001.84,0003.60,0001.46
2022-12-17 01:05:00,,0822.4,4.95,0.00,20.8,20.6,00.0,29.6,22.5,03.8,0000.0,0001.80,0003.63,0001.45
2022-12-17 01:06:00,,0822.4,5.04,0.00,20.8,19.9,00.0,29.6,22.4,03.8,0000.0,0001.76,0003.56,0001.45
2022-12-17 01:07:00,,0822.4,4.97,0.00,20.7,19.4,00.0,29.6,22.2,03.8,0000.0,0001.72,0003.48,0001.44
2022-12-17 01:08:00,,0822.5,5.04,0.00,20.6,19.0,00.0,29.6,22.1,03.9,0000.0,0001.72,0003.44,0001.44
2022-12-17 01:09:00,,0822.6,4.96,0.00,20.6,18.7,00.0,29.6,22.0,03.9,0000.0,0001.71,0003.41,0001.44
2022-12-17 01:10:00,,0822.6,5.04,0.00,20.5,18.8,00.0,29.6,22.0,03.9,0000.0,0001.73,0003.52,0001.44
2022-12-17 01:11:00,,0822.6,4.99,0.00,20.6,20.2,00.0,29.5,22.3,03.9,0000.0,0001.75,0003.45,0001.46
2022-12-17 01:12:00,,0822.6,5.00,0.00,20.8,21.2,00.0,29.5,22.6,03.8,0000.0,0001.73,0003.27,0001.47
2022-12-17 01:13:00,,0822.6,4.99,0.00,20.8,20.9,00.0,29.6,22.6,03.8,0000.0,0001.72,0002.84,0001.47
2022-12-17 01:14:00,,0822.5,4.98,0.00,20.8,20.2,00.0,29.6,22.5,03.8,0000.0,0001.68,0002.55,0001.48
2022-12-17 01:15:00,,0822.6,5.04,0.00,20.8,19.7,00.0,29.6,22.3,03.8,0000.0,0001.68,0002.59,0001.48
2022-12-17 01:16:00,,0822.5,4.96,0.00,20.7,19.3,00.0,29.6,22.2,03.8,0000.0,0001.67,0002.45,0001.48
2022-12-17 01:17:00,,0822.6,5.04,0.00,20.6,19.1,00.0,29.6,22.1,03.8,0000.0,0001.70,0002.53,0001.49
2022-12-17 01:18:00,,0822.6,4.98,0.00,20.6,18.9,00.0,29.6,22.1,03.9,0000.0,0001.72,0002.61,0001.49
2022-12-17 01:19:00,,0822.6,5.04,0.00,20.6,19.7,00.0,29.6,22.3,03.9,0000.0,0001.72,0002.68,0001.49
2022-12-17 01:20:00,,0822.5,4.99,0.00,20.8,21.0,00.0,29.5,22.6,03.9,0000.0,0001.76,0003.29,0001.49
2022-12-17 01:21:00,,0822.5,5.00,0.00,20.9,21.4,00.0,29.6,22.8,03.8,0000.0,0001.73,0003.55,0001.49
2022-12-17 01:22:00,,0822.6,4.99,0.00,21.0,20.9,00.0,29.7,22.8,03.8,0000.0,0001.71,0003.50,0001.47
2022-12-17 01:23:00,,0822.6,4.98,0.00,21.0,20.4,00.0,29.7,22.7,03.8,0000.0,0001.71,0003.49,0001.47
2022-12-17 01:24:00,,0822.6,5.03,0.00,20.9,19.9,00.0,29.7,22.6,03.8,0000.0,0001.77,0003.61,0001.46
2022-12-17 01:25:00,,0822.6,4.97,0.00,20.9,19.6,00.0,29.7,22.5,03.8,0000.0,0001.78,0003.66,0001.45
2022-12-17 01:26:00,,0822.6,5.05,0.00,20.8,19.4,00.0,29.7,22.4,03.8,0000.0,0001.78,0003.67,0001.45
2022-12-17 01:27:00,,0822.6,4.97,0.00,20.8,19.3,00.0,29.7,22.4,03.8,0000.0,0001.80,0003.68,0001.46
2022-12-17 01:28:00,,0822.6,5.04,0.00,20.8,19.2,00.0,29.7,22.4,03.8,0000.0,0001.82,0003.66,0001.46
2022-12-17 01:29:00,,0822.6,4.97,0.00,20.8,19.8,00.0,29.7,22.5,03.8,0000.0,0001.82,0003.64,0001.47
2022-12-17 01:30:00,,0822.6,5.05,0.00,20.9,21.0,00.0,29.6,22.8,03.8,0000.0,0001.83,0003.62,0001.47
2022-12-17 01:31:00,,0822.6,4.95,0.00,21.1,21.6,00.0,29.7,23.1,03.8,0000.0,0001.83,0003.53,0001.47
2022-12-17 01:32:00,,0822.6,5.02,0.00,21.1,21.3,00.0,29.8,23.0,03.7,0000.0,0001.83,0002.70,0001.48
2022-12-17 01:33:00,,0822.5,4.99,0.00,21.1,20.8,00.0,29.8,23.0,03.7,0000.0,0001.87,0002.71,0001.50
2022-12-17 01:34:00,,0822.6,5.01,0.00,21.1,20.4,00.0,29.8,22.9,03.7,0000.0,0001.90,0002.71,0001.53
2022-12-17 01:35:00,,0822.5,5.01,0.00,21.1,20.1,00.0,29.9,22.8,03.7,0000.0,0001.88,0002.79,0001.56
2022-12-17 01:36:00,,0822.5,4.97,0.00,21.1,19.9,00.0,29.9,22.8,03.7,0000.0,0001.90,0002.89,0001.58
2022-12-17 01:37:00,,0822.4,5.04,0.00,21.1,19.7,00.0,29.9,22.7,03.7,0000.0,0001.94,0002.94,0001.59
2022-12-17 01:38:00,,0822.4,4.96,0.00,21.0,19.6,00.0,29.9,22.7,03.7,0000.0,0001.96,0002.96,0001.61
2022-12-17 01:39:00,,0822.4,5.04,0.00,21.0,19.5,00.0,29.9,22.6,03.7,0000.0,0001.96,0002.99,0001.61
2022-12-17 01:40:00,,0822.4,4.97,0.00,21.0,19.7,00.0,29.8,22.7,03.7,0000.0,0001.97,0003.05,0001.61
2022-12-17 01:41:00,,0822.4,5.04,0.00,21.1,20.9,00.0,29.8,22.9,03.7,0000.0,0001.98,0003.06,0001.63
2022-12-17 01:42:00,,0822.5,4.95,0.00,21.2,21.8,00.0,29.8,23.2,03.7,0000.0,0002.03,0003.12,0001.67
2022-12-17 01:43:00,,0822.5,5.04,0.00,21.3,21.4,00.0,29.9,23.2,03.7,0000.0,0002.06,0003.14,0001.71
2022-12-17 01:44:00,,0822.5,4.99,0.00,21.3,21.0,00.0,30.0,23.1,03.7,0000.0,0002.08,0003.12,0001.74
2022-12-17 01:45:00,,0822.5,4.97,0.00,21.3,20.5,00.0,30.0,23.0,03.7,0000.0,0002.11,0003.16,0001.78
2022-12-17 01:46:00,,0822.5,5.05,0.00,21.3,20.2,00.0,30.0,22.9,03.7,0000.0,0002.18,0003.18,0001.82
2022-12-17 01:47:00,,0822.5,4.97,0.00,21.2,19.9,00.0,30.0,22.9,03.8,0000.0,0002.29,0003.31,0001.87
2022-12-17 01:48:00,,0822.5,5.02,0.00,21.2,19.8,00.0,30.0,22.8,03.8,0000.0,0002.32,0003.60,0001.92
2022-12-17 01:49:00,,0822.5,4.99,0.00,21.1,19.6,00.0,30.0,22.8,03.7,0000.0,0002.39,0003.99,0001.95
2022-12-17 01:50:00,,0822.5,5.01,0.00,21.1,19.5,00.0,30.0,22.7,03.7,0000.0,0002.45,0004.44,0001.96
2022-12-17 01:51:00,,0822.5,5.00,0.00,21.1,20.1,00.0,30.0,22.8,03.7,0000.0,0002.44,0004.43,0001.96
2022-12-17 01:52:00,,0822.5,4.99,0.00,21.3,21.2,00.0,29.9,23.1,03.6,0000.0,0002.44,0004.39,0001.95
2022-12-17 01:53:00,,0822.4,4.99,0.00,21.4,21.7,00.0,30.0,23.3,03.6,0000.0,0002.40,0004.36,0001.92
2022-12-17 01:54:00,,0822.4,5.00,0.00,21.4,21.2,00.0,30.1,23.2,03.6,0000.0,0002.40,0004.40,0001.90
2022-12-17 01:55:00,,0822.5,5.01,0.00,21.4,20.8,00.0,30.1,23.1,03.6,0000.0,0002.38,0004.68,0001.86
2022-12-17 01:56:00,,0822.4,4.97,0.00,21.3,20.5,00.0,30.1,23.1,03.6,0000.0,0002.36,0005.30,0001.82
2022-12-17 01:57:00,,0822.4,5.05,0.00,21.3,20.2,00.0,30.1,23.0,03.6,0000.0,0002.31,0005.57,0001.77
2022-12-17 01:58:00,,0822.4,4.97,0.00,21.3,20.0,00.0,30.1,22.9,03.7,0000.0,0002.19,0005.35,0001.70
2022-12-17 01:59:00,,0822.4,5.04,0.00,21.3,19.9,00.0,30.1,22.9,03.7,0000.0,0002.11,0005.12,0001.64
